• Join FlightAware (Why Join?)
  • Login
  • US Flag 
10:40AM EST


 

Airport Tracker/Info


-or-


 

Live Flight TrackerFlight Track Log ✈ UCA4833 ✈ 03-Apr-2014 ✈ KEWR - KIAD

Flight Track Log - Related Links

Times and Time Zones

All times are in EDT time to prevent confusion due to time zone crossing. See the UCA4833 flight status page for this flight to view local times or setup timezone preferences in your user account.

Time Position Orientation Groundspeed Altitude Reporting Facility
EDT Latitude Longitude Course Direction KTS MPH feet Rate Location/Type
05:19PM 40.6500 -74.1833 278° West 143 165 1,300  Level New York TRACON
05:20PM 40.6500 -74.2333 270° West 176 203 2,200 1,200 Climbing New York TRACON
05:21PM 40.6667 -74.3000 288° West 179 206 3,700 1,350 Climbing New York TRACON
05:22PM 40.6667 -74.3667 270° West 184 212 4,900 1,350 Climbing New York TRACON
05:23PM 40.6833 -74.4167 294° West 182 209 6,400 1,397 Climbing New York TRACON
05:24PM 40.7403 -74.6128 278° West  Level FlightAware Approximate
05:24PM 40.7253 -74.4458 332° Northwest 186 214 7,600  Level New York Center
05:25PM 40.7356 -74.5147 281° West 166 191 8,800 1,250 Climbing New York Center
05:26PM 40.7439 -74.5811 279° West 179 206 10,100 1,100 Climbing New York Center
05:27PM 40.7503 -74.6389 278° West 179 206 11,000 500 Climbing New York Center
05:28PM 40.7497 -74.7236 270° West 197 227 11,100 700 Climbing New York Center
05:29PM 40.7350 -74.7858 253° West 212 244 12,400 1,250 Climbing New York Center
05:30PM 40.7242 -74.8619 259° West 199 229 13,600 800 Climbing New York Center
05:31PM 40.7111 -74.9350 257° West 199 229 14,000 200 Climbing New York Center
05:32PM 40.6981 -75.0083 257° West 218 251 14,000  Level New York Center
05:33PM 40.6822 -75.1031 258° West 241 277 14,000  Level New York Center
05:34PM 40.6664 -75.1869 256° West 241 277 14,000  Level New York Center
05:35PM 40.6531 -75.2681 258° West 241 277 14,000  Level New York Center
05:36PM 40.6372 -75.3517 256° West 241 277 14,000  Level New York Center
05:37PM 40.6236 -75.4356 258° West 235 270 14,000  Level New York Center
05:38PM 40.6100 -75.5167 258° West 235 270 14,000  Level New York Center
05:39PM 40.5964 -75.5978 258° West 240 276 14,000  Level New York Center
05:40PM 40.5825 -75.6761 257° West 240 276 14,000  Level New York Center
05:41PM 40.5403 -75.7414 230° Southwest 235 270 14,000  Level New York Center
05:42PM 40.4961 -75.7981 224° Southwest 240 276 14,000  Level New York Center
05:43PM 40.4453 -75.8653 225° Southwest 240 276 14,000  Level New York Center
05:44PM 40.3989 -75.9275 226° Southwest 240 276 14,000  Level New York Center
05:45PM 40.3569 -75.9842 226° Southwest 240 276 14,000  Level New York Center
05:46PM 40.3119 -76.0569 231° Southwest 234 269 14,000  Level New York Center
05:47PM 40.2800 -76.1172 235° Southwest 234 269 14,000  Level New York Center
05:48PM 40.2389 -76.1956 236° Southwest 234 269 14,000 -200 Level New York Center
05:49PM 40.2025 -76.2608 234° Southwest 234 269 13,600 -550 Descending New York Center
05:50PM 40.1617 -76.3336 234° Southwest 244 281 12,900 -650 Descending New York Center
05:51PM 40.1228 -76.4064 235° Southwest 249 287 12,300 -355 Descending New York Center
05:52PM 40.0667 -76.5167 236° Southwest 235 270 12,000 -118 Descending Potomac TRACON
05:53PM 40.0333 -76.5833 237° Southwest 233 268 12,000  Level Potomac TRACON
05:54PM 39.9833 -76.6500 226° Southwest 229 264 12,000 -50 Level Potomac TRACON
05:55PM 39.9500 -76.7167 237° Southwest 225 259 11,900 -50 Descending Potomac TRACON
05:56PM 39.9167 -76.7833 237° Southwest 218 251 11,900  Level Potomac TRACON
05:57PM 39.8833 -76.8500 237° Southwest 216 249 11,900 -263 Level Potomac TRACON
05:58PM 39.8500 -76.9167 237° Southwest 219 252 11,400 -744 Descending Potomac TRACON
05:59PM 39.8167 -76.9833 237° Southwest 228 262 10,400 -992 Descending Potomac TRACON
06:00PM 39.7833 -77.0500 237° Southwest 233 268 9,400 -1,000 Descending Potomac TRACON
06:01PM 39.7500 -77.1167 237° Southwest 232 267 8,400 -744 Descending Potomac TRACON
06:02PM 39.7000 -77.1833 226° Southwest 231 266 7,900 -248 Descending Potomac TRACON
06:03PM 39.6667 -77.2333 229° Southwest 225 259 7,900  Level Potomac TRACON
06:04PM 39.6167 -77.3000 226° Southwest 225 259 7,900 -248 Level Potomac TRACON
06:05PM 39.5667 -77.3500 218° Southwest 234 269 7,400 -744 Descending Potomac TRACON
06:06PM 39.5167 -77.4000 218° Southwest 249 287 6,400 -1,048 Descending Potomac TRACON
06:07PM 39.4333 -77.4333 197° South 247 284 5,200 -1,048 Descending Potomac TRACON
06:08PM 39.3833 -77.4333 180° South 243 280 4,200 -650 Descending Potomac TRACON
06:09PM 39.3167 -77.4333 180° South 222 255 3,900 -350 Descending Potomac TRACON
06:10PM 39.2500 -77.4333 180° South 226 260 3,500 -526 Descending Potomac TRACON
06:11PM 39.2000 -77.4333 180° South 227 261 2,900 -316 Descending Potomac TRACON
06:12PM 39.1333 -77.4333 180° South 213 245 2,900 -149 Level Potomac TRACON
06:13PM 39.0833 -77.4333 180° South 206 237 2,600 -645 Descending Potomac TRACON
06:14PM 39.0167 -77.4333 180° South 177 204 1,600 -900 Descending Potomac TRACON
06:15PM 38.9833 -77.4333 180° South 137 158 800 -800 Descending Potomac TRACON
06:17PM 38.9474 -77.4599 90° East  Level Estimated